Regional Weather Roundup
Issued by NWS Green Bay, WI

Home | Current Version | Previous Version | Graphics & Text | Print | Product List | Glossary Off
Versions: 1 2 3 4 5 6 7 8 9 10 11 12 13 14 15 16 17 18 19 20 21 22 23 24 25 26 27 28 29 30 31 32 33 34 35 36 37 38 39 40 41 42 43 44 45 46 47 48 49 50

000
ASUS43 KGRB 222300
RWRGRB

NORTH-CENTRAL AND NORTHEAST WISCONSIN REGIONAL WEATHER ROUNDUP
NATIONAL WEATHER SERVICE GREEN BAY WI
600 PM CDT SUN APR 22 2018

WIZ005-009-010>012-018-019-230000-
NORTH CENTRAL WISCONSIN

CITY           SKY/WX    TMP DP  RH WIND       PRES   REMARKS
IRONWOOD       FAIR      58  24  27 N7        30.25F
MANITOWISH WTR NOT AVBL
ARBOR VITAE    NOT AVBL
EAGLE RIVER    FAIR      56  17  21 SW5       30.26S
LAND O LAKES   FAIR      61  13  15 S6        30.27S
RHINELANDER    FAIR      58  26  29 SW6       30.28S
PHILLIPS       FAIR      58  28  30 S8        30.26F
ANTIGO         NOT AVBL
TOMAHAWK       NOT AVBL
MERRILL          N/A     60  23  24 S8        30.29S
$$

WIZ013-073-230000-
NORTHEAST WISCONSIN

CITY           SKY/WX    TMP DP  RH WIND       PRES   REMARKS
IRON MOUNTAIN  FAIR      60  21  22 S12       30.27S
MARINETTE      FAIR      56  22  26 SE10      30.32F
$$

WIZ017-030-035>037-045-230000-
CENTRAL WISCONSIN

CITY           SKY/WX    TMP DP  RH WIND       PRES   REMARKS
MEDFORD        NOT AVBL
WAUSAU         FAIR      58  18  21 SE7       30.27F
MOSINEE        MOSUNNY   55  23  28 SE7       30.30F
MARSHFIELD     FAIR      56  26  31 SE8       30.27F
WISC RAPIDS    FAIR      58  18  21 E9        30.29F
STEVENS POINT  NOT AVBL
WAUPACA        FAIR      58  23  26 E7        30.32S
SHAWANO        FAIR      56  24  28 SE9       30.32S
CLINTONVILLE   FAIR      56  21  25 SE5       30.32S
WAUTOMA        FAIR      58  27  30 E7        30.30F
$$

WIZ038-039-048-051-230000-
FOX VALLEY

CITY           SKY/WX    TMP DP  RH WIND       PRES   REMARKS
NWS GREEN BAY  FAIR      55  30  38 S3        30.32F
APPLETON       SUNNY     57  23  26 VRB3      30.30F
OSHKOSH        FAIR      56  32  40 NE6       30.30F
FOND DU LAC    FAIR      57  31  37 NE8       30.30F
$$

WIZ022-050-052-230000-
EAST CENTRAL WISCONSIN

CITY           SKY/WX    TMP DP  RH WIND       PRES   REMARKS
EPHRAIM        NOT AVBL
WASHINGTON ISL NOT AVBL
STURGEON BAY   NOT AVBL
MANITOWOC      FAIR      52  32  46 SE7       30.33S
SHEBOYGAN      FAIR      57  30  35 CALM      30.30F
$$

LMZ563-521-522-541>543-230000-
LAKESHORE

STATION/POSITION TIME  TEMP    WIND        PRES    VSBY  WAVE
                       AIR SEA DIR/SP/G                  HT/PER
                 (UTC) (F)     (DEG/KT/KT) (MB)    (MI)  (FT/S)
SHEBOYGAN LKSHOR 2200   45      20/  7/  7 1027.0F
KEWAUNEE LKSHORE 2230   45      40/  3/  5 1026.4F
NORTHPORT PIER   2240   42                 1026.8F
SISTER BAY LKSHO 2227   53        CALM       N/A
MENOMINEE LKSHOR 2224   50     140/  4/  5 1026.6
$$



USA.gov is the U.S. government's official web portal to all federal, state and local government web resources and services.